Hourly Data Report for September 02, 2017

All times are specified in Local Standard Time (LST). Add 1 hour to adjust for Daylight Saving Time where and when it is observed.

BATHURST A
NEW BRUNSWICK

47°37'47.000" N
65°44'20.000" W
58.80 m
8100505
71574
ZBF

Download Data

Hourly Data (September 2017)
Hourly Data Report for September 2, 2017
Temp Definition
°C
Dew Point Temp Definition
°C
Rel Hum Definition
%
Wind Dir Definition
10's deg

Wind Spd Definition
km/h
Visibility Definition
km
Stn Press Definition
kPa
Hmdx Definition


Wind Chill Definition


Weather Definition


TIME
00:00 Legend Double Dagger 8.8 5.6 80 29 11 24.1 100.39     LegendNANA
01:00 Legend Double Dagger 8.4 5.1 80 29 15 24.1 100.43     LegendNANA
02:00 Legend Double Dagger 7.7 4.6 80 29 14 24.1 100.50     Clear
03:00 Legend Double Dagger 8.1 4.9 80 28 14 24.1 100.58     LegendNANA
04:00 Legend Double Dagger 8.4 4.7 78 30 15 24.1 100.63     LegendNANA
05:00 Legend Double Dagger 7.8 4.6 80 29 10 24.1 100.67     Mainly Clear
06:00 Legend Double Dagger 7.8 4.6 80 30 14 22.5 100.74     LegendNANA
07:00 Legend Double Dagger 8.6 4.7 76 29 11 24.1 100.83     LegendNANA
08:00 Legend Double Dagger 10.0 4.6 69 30 16 24.1 100.91     Mostly Cloudy
09:00 Legend Double Dagger 10.6 4.5 66 31 19 24.1 101.00     LegendNANA
10:00 Legend Double Dagger 12.4 5.3 62 31 16 24.1 101.02     LegendNANA
11:00 Legend Double Dagger 14.2 5.5 56 31 16 24.1 101.02     Mainly Clear
12:00 Legend Double Dagger 16.2 5.9 50 30 18 24.1 101.01     LegendNANA
13:00 Legend Double Dagger 17.5 6.6 48 32 12 24.1 101.04     LegendNANA
14:00 Legend Double Dagger 18.6 7.2 47 34 9 24.1 101.03     Clear
15:00 Legend Double Dagger 19.1 7.0 45 33 13 24.1 101.07     LegendNANA
16:00 Legend Double Dagger 19.4 7.2 45 29 10 24.1 101.09     LegendNANA
17:00 Legend Double Dagger 19.4 7.6 46 29 14 24.1 101.16     Clear
18:00 Legend Double Dagger 18.4 8.3 51 28 8 24.1 101.20     LegendNANA
19:00 Legend Double Dagger 16.3 8.7 60 28 6 24.1 101.28     LegendNANA
20:00 Legend Double Dagger 12.4 8.5 77 26 5 24.1 101.37     Clear
21:00 Legend Double Dagger 13.3 5.1 57 29 10 24.1 101.43     LegendNANA
22:00 Legend Double Dagger 12.5 4.2 57 29 8 24.1 101.47     LegendNANA
23:00 Legend Double Dagger 11.2 4.0 61 29 5 24.1 101.49     Clear

Notes on Data Quality.

Legend

  • E = Estimated
  • M = Missing
  • NA = Not Available
  • ‡ = Partner data that is not subject to review by the National Climate Archives
Date modified: